Temp
23 24 25 22 20 19 20 22 21 23 22 22 24 23 22 20 22 20 19 20 19 19 19 19 20 20 20 21 20 20 21 21 21 20 21 21 21 20 20 19 19 19 19 19 18 18 18 18 19
21 22 22 20 20 20 20 20 22 24 23 23 24 23 21 20 19 18 18 19 20 20 20 20 20 20 20 20 20 20 21 21 21 20 20 20 20 20 20 19 19 19 19 19 19 18 18 18 19
20 21 21 19 20 21 21 21 24 24 23 24 23 23 21 18 18 17 20 20 20 20 20 20 20 20 20 20 20 20 20 20 20 20 20 20 20 20 19 19 19 18 19 18 18 18 18 18 18
21 20 20 21 23 24 23 23 25 24 23 24 23 21 20 19 18 19 20 20 21 20 21 21 21 21 21 21 20 20 20 20 20 20 20 20 20 20 19 19 19 19 19 19 19 18 18 18 19
21 21 21 24 26 26 25 24 24 24 24 24 23 20 19 19 20 20 20 20 21 20 20 20 20 20 20 20 20 20 20 20 20 20 20 20 20 20 19 19 19 19 19 19 18 18 18 18 18
22 21 21 22 25 26 25 25 25 24 24 22 21 21 19 20 21 20 20 20 20 21 20 20 20 20 20 20 19 20 19 19 19 19 19 20 20 20 20 19 19 19 20 19 19 19 19 18 19
21 20 21 22 23 24 25 25 24 24 23 23 22 20 18 20 21 21 20 20 20 20 20 20 20 19 19 20 20 20 19 19 19 19 19 20 20 20 20 19 19 19 20 20 19 19 18 19 19
24 20 23 22 23 25 25 25 24 24 24 23 23 19 18 19 20 20 20 20 20 20 20 20 19 19 19 20 20 20 19 19 19 19 19 19 20 20 20 19 20 20 20 20 20 20 19 19 18
24 21 24 25 25 26 26 25 24 24 23 23 23 22 21 20 20 19 19 19 19 19 20 20 19 19 19 20 20 19 19 19 19 19 19 20 20 20 20 20 19 20 20 20 20 20 20 19 19
23 22 25 26 26 27 27 26 25 24 24 23 22 21 20 20 20 20 20 20 19 20 20 20 20 20 20 20 20 19 19 19 19 19 19 20 20 20 20 20 20 20 20 20 20 20 19 19 19
23 24 27 28 29 29 27 26 25 24 22 22 20 19 20 20 20 20 20 21 21 21 20 20 20 20 20 20 20 19 19 19 19 19 19 20 20 20 20 20 20 20 20 19 20 19 19 19 19
24 25 25 28 30 30 27 27 24 24 24 23 24 22 20 20 20 20 20 20 21 20 20 20 20 20 20 20 20 19 19 19 19 19 19 20 20 20 20 20 20 20 20 20 20 20 20 19 19
24 27 29 30 29 29 29 27 26 25 24 22 22 21 20 21 21 21 22 21 21 21 20 21 20 20 21 21 20 20 19 19 19 19 19 19 20 20 20 20 20 20 20 20 20 19 19 19 19
26 27 29 30 30 30 28 26 27 24 24 22 21 21 22 22 22 21 21 21 21 21 21 20 21 21 21 21 21 20 20 19 19 19 19 19 19 20 20 20 20 20 20 20 19 19 19 18 19
27 27 27 28 28 28 29 27 25 24 24 22 21 22 22 22 22 22 22 22 22 21 21 21 20 20 21 21 21 20 20 19 19 19 19 19 19 19 19 20 20 20 20 20 19 19 19 18 18
25 24 25 27 28 29 28 25 25 24 23 23 22 22 22 22 23 23 22 22 22 22 21 21 20 20 20 20 20 20 20 20 20 19 19 19 19 19 19 19 20 20 20 20 19 19 19 18 18
22 24 25 26 27 27 27 26 25 24 23 23 23 22 22 22 23 23 23 23 23 22 21 21 21 20 20 20 19 19 19 20 20 19 19 19 19 19 19 19 20 20 20 20 19 19 19 18 18
24 25 25 26 27 27 27 26 25 24 23 23 23 23 23 23 23 23 23 23 22 22 22 21 21 21 20 20 19 19 19 19 19 19 19 19 20 19 19 19 19 20 20 20 19 18 18 18 18
26 25 25 27 27 27 27 26 26 25 24 23 23 22 23 24 26 24 24 23 22 22 22 21 21 21 20 20 19 19 19 19 19 20 19 19 19 19 19 19 19 19 19 19 19 19 19 18 18
27 25 26 27 27 27 26 26 27 26 25 24 24 23 23 24 25 25 24 23 23 23 22 22 21 21 20 20 20 19 19 19 19 19 19 19 19 18 19 19 19 19 19 19 19 19 19 18 17
27 25 26 27 27 26 26 25 26 28 27 26 26 25 25 25 26 25 25 24 24 23 23 22 22 21 21 20 20 19 19 19 19 18 19 19 18 18 18 19 19 19 19 19 18 19 19 18 17
26 28 29 29 27 26 26 24 26 24 25 27 27 27 26 25 26 26 26 25 24 25 24 23 22 21 21 21 20 19 19 20 20 19 19 18 18 18 18 18 18 19 18 18 19 19 18 18 18
26 29 27 29 25 26 26 24 24 23 25 25 25 28 28 27 26 26 27 27 26 25 25 24 23 22 22 21 20 19 19 19 19 19 18 18 18 18 18 18 18 18 19 18 18 19 19 18 18
28 28 24 21 22 23 23 24 23 24 24 23 25 27 27 28 27 26 26 26 26 25 25 24 23 23 22 21 21 20 20 19 19 19 19 18 18 18 18 18 18 18 18 18 18 18 18 19 18
26 23 21 23 22 22 20 22 22 24 23 23 23 26 29 30 28 27 26 26 26 25 26 25 24 23 22 22 21 21 21 20 20 19 19 19 18 18 18 18 18 18 18 18 18 18 18 19 18
26 24 21 24 21 23 21 23 24 24 24 24 25 28 29 29 29 27 28 27 26 26 26 26 25 24 23 23 22 22 22 21 21 20 19 19 19 19 18 18 18 18 18 18 18 18 19 18 18
27 24 24 21 21 21 20 21 22 23 24 24 25 27 28 29 27 28 27 27 27 26 26 26 26 25 24 24 23 23 22 22 22 22 20 20 19 19 18 18 18 18 18 18 18 18 19 18 18
26 24 25 20 23 24 21 20 21 24 24 22 23 26 28 29 28 28 27 27 27 26 26 26 26 26 25 24 24 23 23 23 22 22 21 20 20 19 19 18 18 18 18 18 18 19 19 19 19
25 23 19 19 19 20 20 20 19 21 21 21 23 27 29 29 31 30 30 28 27 26 26 26 26 25 25 25 24 24 23 23 22 21 21 21 20 20 20 19 19 19 18 18 18 18 18 18 19
24 23 21 21 21 17 19 21 23 20 22 24 27 29 30 30 31 32 31 29 28 27 26 26 26 26 26 25 25 24 24 23 22 21 21 21 20 20 20 20 20 19 18 18 18 18 18 19 19
Height
1503 1501 1500 1499 1511 1518 1530 1521 1516 1515 1516 1516 1519 1518 1519 1521 1523 1537 1530 1536 1540 1542 1545 1548 1551 1553 1553 1553 1553 1554 1555 1555 1555 1554 1554 1553 1553 1553 1552 1552 1552 1552 1550 1548 1546 1544 1543 1541 1538
1505 1504 1504 1504 1518 1536 1532 1520 1516 1512 1513 1515 1518 1519 1520 1524 1523 1526 1530 1537 1541 1544 1546 1550 1552 1554 1555 1555 1556 1556 1556 1557 1557 1556 1555 1555 1555 1555 1554 1554 1554 1552 1551 1549 1547 1545 1543 1541 1538
1508 1510 1510 1510 1521 1531 1528 1517 1510 1512 1512 1514 1517 1519 1522 1525 1527 1528 1532 1536 1541 1545 1548 1551 1553 1556 1557 1558 1558 1558 1559 1559 1558 1558 1557 1556 1556 1557 1556 1556 1555 1553 1552 1550 1548 1546 1544 1542 1539
1511 1515 1516 1519 1522 1511 1512 1511 1510 1514 1515 1514 1516 1521 1525 1526 1529 1531 1534 1538 1542 1546 1549 1552 1555 1557 1558 1560 1560 1560 1560 1560 1559 1559 1559 1559 1558 1558 1558 1557 1556 1554 1553 1552 1550 1547 1545 1543 1541
1515 1515 1518 1516 1511 1507 1508 1509 1512 1514 1514 1515 1516 1525 1529 1533 1533 1534 1536 1541 1544 1547 1550 1553 1556 1558 1559 1560 1561 1561 1561 1560 1560 1560 1561 1561 1561 1560 1559 1558 1557 1556 1555 1553 1551 1547 1545 1543 1542
1515 1515 1526 1529 1517 1509 1511 1512 1511 1512 1515 1516 1520 1522 1532 1534 1535 1537 1539 1543 1547 1549 1551 1554 1556 1558 1560 1562 1562 1561 1561 1561 1562 1562 1563 1563 1563 1562 1561 1560 1558 1556 1555 1554 1551 1550 1547 1545 1543
1516 1517 1528 1525 1521 1517 1513 1512 1510 1513 1517 1519 1519 1526 1533 1535 1538 1539 1543 1546 1549 1552 1554 1555 1558 1560 1561 1563 1563 1563 1563 1563 1564 1565 1564 1564 1564 1564 1562 1560 1559 1558 1556 1554 1552 1550 1549 1547 1547
1512 1516 1523 1526 1525 1523 1514 1514 1515 1514 1517 1520 1521 1526 1532 1534 1538 1541 1545 1548 1552 1554 1556 1557 1559 1561 1562 1564 1564 1565 1565 1566 1566 1566 1567 1566 1565 1565 1565 1563 1561 1559 1557 1555 1554 1552 1552 1552 1550
1512 1521 1525 1520 1519 1514 1512 1513 1518 1516 1517 1521 1521 1521 1526 1533 1538 1542 1545 1548 1551 1554 1556 1558 1559 1561 1563 1564 1565 1566 1567 1567 1568 1568 1568 1568 1567 1566 1566 1565 1563 1562 1560 1556 1556 1555 1555 1555 1553
1514 1522 1518 1513 1512 1513 1511 1511 1513 1517 1521 1522 1523 1524 1529 1533 1538 1541 1544 1547 1550 1552 1555 1558 1560 1562 1564 1565 1566 1567 1569 1569 1570 1570 1569 1569 1569 1568 1568 1567 1565 1564 1562 1560 1558 1558 1557 1557 1556
1514 1519 1510 1506 1506 1510 1511 1512 1513 1518 1523 1521 1521 1525 1530 1534 1539 1542 1545 1547 1548 1552 1555 1557 1560 1562 1564 1566 1566 1567 1569 1570 1570 1571 1571 1570 1570 1570 1569 1568 1566 1565 1563 1561 1560 1560 1560 1560 1559
1514 1508 1508 1503 1504 1505 1510 1511 1514 1515 1515 1518 1519 1522 1528 1534 1537 1541 1544 1547 1549 1551 1554 1557 1559 1561 1564 1565 1567 1568 1569 1570 1571 1571 1572 1572 1571 1571 1571 1570 1568 1567 1565 1563 1563 1562 1563 1563 1562
1514 1508 1504 1504 1507 1506 1508 1510 1512 1515 1516 1521 1523 1525 1528 1532 1536 1540 1543 1546 1548 1550 1553 1555 1558 1560 1562 1564 1566 1567 1569 1570 1572 1572 1573 1573 1573 1572 1572 1571 1570 1569 1568 1567 1566 1565 1565 1565 1566
1510 1507 1505 1505 1506 1510 1510 1512 1511 1519 1518 1523 1524 1525 1527 1530 1533 1539 1541 1543 1545 1548 1551 1554 1557 1559 1561 1563 1565 1567 1569 1570 1572 1572 1573 1573 1574 1573 1573 1572 1572 1571 1570 1569 1568 1567 1567 1568 1568
1513 1511 1507 1510 1507 1511 1512 1515 1514 1516 1519 1521 1524 1525 1528 1530 1533 1534 1537 1539 1543 1547 1550 1552 1555 1557 1560 1562 1564 1566 1568 1570 1571 1572 1573 1573 1574 1574 1574 1573 1573 1573 1572 1571 1570 1570 1569 1570 1571
1514 1516 1525 1511 1510 1512 1514 1528 1515 1517 1519 1522 1523 1525 1526 1527 1527 1532 1536 1539 1542 1546 1547 1551 1554 1556 1558 1561 1563 1565 1566 1568 1570 1571 1573 1573 1575 1575 1575 1575 1574 1575 1574 1573 1572 1572 1571 1572 1573
1528 1538 1528 1519 1510 1513 1515 1521 1515 1519 1520 1520 1521 1522 1525 1527 1528 1531 1534 1537 1539 1543 1546 1549 1552 1555 1558 1560 1562 1564 1566 1567 1568 1570 1572 1572 1574 1574 1575 1576 1575 1575 1575 1574 1574 1573 1574 1574 1574
1538 1533 1527 1524 1514 1512 1515 1516 1514 1516 1518 1516 1517 1520 1521 1523 1523 1527 1530 1535 1537 1540 1544 1548 1550 1553 1556 1560 1562 1563 1564 1565 1566 1568 1570 1571 1572 1574 1575 1575 1575 1575 1576 1575 1574 1574 1575 1575 1576
1524 1527 1529 1517 1507 1510 1512 1513 1511 1510 1514 1515 1514 1515 1516 1518 1519 1525 1529 1531 1537 1540 1542 1545 1548 1551 1554 1556 1558 1560 1561 1564 1565 1566 1568 1570 1571 1573 1573 1574 1575 1575 1576 1576 1575 1575 1576 1576 1577
1521 1526 1526 1516 1508 1512 1513 1514 1505 1506 1502 1504 1506 1507 1510 1513 1516 1519 1524 1530 1531 1535 1540 1543 1545 1549 1551 1554 1556 1559 1560 1562 1564 1566 1567 1569 1570 1572 1573 1574 1574 1574 1576 1576 1576 1576 1576 1576 1577
1516 1523 1520 1518 1510 1511 1516 1521 1514 1504 1500 1508 1508 1508 1509 1508 1511 1514 1519 1525 1526 1531 1535 1539 1543 1546 1549 1552 1555 1557 1559 1560 1561 1563 1565 1567 1568 1570 1572 1572 1573 1574 1575 1576 1577 1576 1577 1577 1578
1523 1504 1506 1508 1520 1537 1519 1548 1516 1512 1503 1502 1505 1506 1508 1508 1507 1509 1514 1519 1522 1526 1531 1536 1540 1543 1546 1549 1552 1553 1555 1556 1558 1560 1563 1565 1566 1568 1570 1571 1572 1573 1574 1575 1576 1577 1577 1577 1578
1515 1502 1505 1506 1521 1525 1524 1539 1523 1513 1513 1508 1505 1502 1501 1499 1501 1505 1510 1514 1518 1523 1527 1531 1536 1540 1543 1546 1548 1550 1552 1554 1556 1558 1560 1563 1564 1566 1567 1568 1570 1570 1572 1573 1574 1576 1576 1576 1576
1503 1503 1511 1521 1531 1553 1536 1539 1535 1520 1515 1511 1503 1501 1497 1496 1498 1501 1506 1512 1515 1519 1524 1528 1532 1537 1541 1543 1545 1547 1548 1551 1553 1555 1556 1559 1561 1563 1564 1566 1566 1567 1569 1570 1572 1573 1574 1574 1575
1504 1521 1555 1555 1560 1560 1541 1542 1530 1512 1508 1506 1502 1497 1493 1492 1493 1497 1500 1504 1509 1513 1519 1524 1528 1532 1536 1539 1541 1544 1546 1549 1550 1552 1553 1555 1557 1559 1560 1562 1563 1564 1566 1567 1568 1570 1571 1572 1573
1509 1516 1549 1561 1571 1554 1538 1545 1524 1505 1503 1504 1503 1497 1495 1494 1495 1497 1497 1501 1506 1510 1515 1520 1524 1528 1532 1535 1537 1540 1542 1544 1547 1549 1551 1552 1554 1556 1557 1559 1560 1561 1563 1564 1565 1566 1567 1568 1569
1509 1521 1508 1540 1544 1553 1551 1535 1513 1504 1502 1500 1498 1497 1495 1494 1495 1494 1497 1498 1500 1504 1511 1516 1521 1525 1528 1531 1533 1536 1539 1541 1542 1545 1547 1549 1550 1552 1553 1554 1556 1557 1559 1560 1562 1563 1565 1565 1566
1503 1505 1525 1537 1558 1559 1552 1549 1539 1510 1507 1502 1498 1494 1492 1493 1492 1491 1492 1495 1497 1501 1507 1513 1516 1520 1523 1527 1529 1532 1535 1537 1539 1542 1543 1545 1547 1548 1549 1550 1551 1553 1555 1557 1559 1560 1562 1562 1563
1507 1515 1524 1531 1543 1560 1566 1550 1511 1509 1506 1504 1497 1493 1490 1489 1487 1488 1488 1492 1495 1499 1504 1508 1511 1516 1520 1523 1525 1528 1530 1532 1535 1537 1540 1541 1544 1545 1545 1546 1547 1549 1551 1554 1555 1557 1558 1559 1560
1494 1505 1514 1533 1542 1550 1550 1539 1496 1499 1496 1495 1494 1493 1491 1488 1486 1487 1489 1491 1494 1497 1500 1504 1508 1511 1515 1519 1522 1523 1526 1529 1531 1532 1535 1537 1538 1540 1542 1543 1544 1545 1548 1550 1551 1552 1554 1554 1556
Wind_Speed
13 11 9 5 4 5 3 1 1 3 4 0 16 2 8 5 2 3 21 26 26 23 22 22 21 19 16 14 14 15 14 10 10 10 10 11 13 15 16 15 14 12 10 9 7 7 7 7 8
8 10 4 3 5 4 3 1 2 2 11 20 13 8 4 4 6 21 33 28 25 24 23 21 20 18 15 13 13 14 13 11 9 8 10 12 15 17 16 14 13 13 10 9 7 8 9 9 10
4 6 4 3 3 4 4 4 8 12 14 2 5 7 4 4 18 32 29 31 26 24 22 20 19 17 14 13 14 13 12 11 10 9 9 16 18 17 16 14 13 11 11 11 11 11 10 11 10
6 4 2 1 3 3 5 6 18 13 3 6 14 7 7 3 25 21 32 29 26 25 23 20 18 16 14 12 12 12 11 10 10 11 13 18 18 16 15 13 13 13 13 12 12 11 11 11 11
10 3 0 2 3 3 4 11 12 4 3 8 6 6 12 12 13 29 32 27 25 25 23 21 18 14 14 13 12 11 10 10 13 16 17 17 16 14 14 14 14 15 14 15 15 16 10 8 9
2 1 4 3 3 7 6 15 12 9 7 14 15 13 6 11 20 28 28 25 23 23 22 20 17 14 12 11 12 11 12 13 17 19 16 15 14 14 14 15 16 14 14 16 15 12 15 14 16
5 3 3 2 7 2 4 7 8 10 11 7 20 5 12 22 20 26 26 23 22 21 20 18 16 14 12 12 12 11 13 18 21 17 15 14 13 12 13 16 16 15 16 15 21 11 12 15 13
3 4 2 1 1 2 7 4 11 16 5 20 16 6 9 29 23 25 25 22 21 20 18 17 15 14 13 13 13 14 17 19 17 16 13 12 11 13 13 16 14 16 17 14 16 16 16 16 15
2 4 2 3 5 6 13 8 12 3 19 7 7 11 28 31 28 30 26 26 23 20 18 17 16 14 13 13 14 16 18 16 15 13 13 10 12 17 17 16 15 14 19 17 15 14 16 19 18
3 2 2 3 2 4 14 15 13 8 14 3 16 23 36 33 31 29 28 28 25 23 19 16 15 14 14 14 14 17 16 13 12 10 9 10 12 12 13 13 11 12 16 17 16 14 14 16 19
1 4 4 6 7 5 16 12 6 21 3 10 31 34 35 35 32 28 26 23 22 21 20 18 16 14 14 15 16 15 14 12 12 9 8 11 10 9 11 13 12 13 15 10 9 12 14 17 20
2 9 7 8 2 10 14 16 10 10 6 23 22 34 38 37 34 30 26 24 21 23 21 18 17 15 15 15 15 12 12 11 12 10 8 7 8 7 7 10 12 14 17 17 12 11 14 17 19
1 4 10 10 7 10 14 9 6 5 20 25 26 33 37 36 33 29 23 21 21 22 21 20 18 16 15 15 15 14 10 12 12 10 6 6 5 6 6 6 8 11 16 12 12 11 14 14 16
4 10 10 7 7 9 6 5 5 11 26 29 29 34 35 36 34 30 27 25 24 21 19 20 18 16 15 14 14 14 8 11 11 11 6 6 4 4 4 5 5 8 13 13 9 10 10 13 14
3 2 6 5 6 4 11 2 2 25 28 32 31 32 33 34 33 31 29 28 24 20 18 17 18 16 17 13 15 14 10 12 11 9 6 7 5 3 2 2 3 6 11 10 6 8 11 12 12
5 5 2 2 5 3 2 6 6 27 30 28 30 32 37 36 34 30 28 26 25 20 21 17 17 16 16 14 13 13 14 14 12 10 8 8 6 4 4 2 5 6 7 9 5 7 9 10 10
6 1 1 6 7 1 6 3 13 25 26 27 30 29 34 36 36 33 30 26 23 23 21 20 20 18 16 14 12 10 12 15 13 13 10 11 9 5 6 3 4 3 4 5 5 8 6 10 11
1 3 2 2 4 3 3 4 13 28 26 28 31 31 33 34 38 35 32 29 27 25 23 21 20 19 17 15 14 11 10 14 16 15 15 12 10 7 6 7 7 5 1 3 6 9 9 8 10
3 3 4 4 5 2 4 4 12 27 27 25 27 30 35 38 34 38 35 33 31 29 27 26 24 21 21 21 19 16 13 14 16 14 16 13 10 7 5 7 10 8 3 3 7 7 8 11 10
6 6 5 5 5 1 4 8 5 22 33 37 33 33 35 38 35 33 35 34 34 33 31 29 26 23 22 22 19 15 9 14 13 14 16 15 11 10 7 8 10 10 7 6 4 4 8 12 13
1 7 5 6 0 5 6 7 4 6 25 24 29 29 32 38 38 37 35 36 37 34 32 29 27 24 23 22 20 19 14 15 17 16 17 15 13 12 10 9 7 8 9 7 6 3 4 10 12
6 5 6 4 3 2 2 4 4 5 5 7 19 24 27 31 38 39 35 35 38 34 30 29 28 26 25 22 22 22 21 17 20 18 16 15 15 14 13 12 10 10 11 10 8 5 5 7 10
9 5 8 0 4 2 2 4 6 3 5 3 7 13 29 39 40 39 40 35 35 33 30 29 29 27 26 24 23 22 23 19 16 17 18 18 16 15 13 12 14 13 14 14 12 10 8 8 8
11 2 7 5 3 3 4 3 5 2 3 5 9 9 14 32 35 35 38 36 36 35 31 30 29 27 27 24 22 21 21 19 18 18 19 19 18 17 16 15 13 16 16 17 17 15 13 11 10
4 6 3 3 3 5 3 3 7 5 6 6 14 20 9 13 26 30 34 39 41 38 34 29 29 29 26 26 22 19 17 18 19 17 17 18 17 18 18 17 16 15 16 17 17 17 17 14 12
4 7 6 6 4 4 2 3 5 3 14 13 11 11 11 11 8 24 27 31 41 40 36 31 28 28 27 25 23 20 17 17 18 17 16 16 16 15 14 15 16 15 16 15 17 17 16 14 15
2 2 4 7 2 3 2 6 9 5 3 14 16 15 17 15 9 12 23 32 35 41 39 33 30 28 27 25 23 22 19 19 17 17 17 16 14 13 14 16 17 17 17 16 17 18 16 16 15
5 3 3 3 4 3 3 4 5 4 4 9 13 21 21 20 18 10 19 30 33 35 38 36 33 30 27 26 25 23 22 20 19 17 19 18 14 13 14 15 17 18 18 16 16 18 18 18 17
1 1 6 5 4 6 3 6 7 6 7 10 16 17 20 23 16 12 9 15 26 31 34 37 37 35 32 30 27 25 24 23 23 21 20 19 18 15 15 15 15 18 19 20 20 19 18 19 18
5 7 5 5 5 2 4 6 5 8 14 17 15 10 15 22 15 6 9 9 18 25 30 33 36 36 33 33 31 28 26 26 24 22 22 20 20 19 18 17 15 17 19 19 20 21 19 20 21
Wind_Direction
118 138 177 347 62 56 318 273 77 170 155 49 172 169 131 58 101 183 144 156 162 156 152 154 152 145 137 131 131 128 126 120 106 96 82 74 79 85 86 82 74 67 62 55 45 31 21 7 0
128 162 197 32 78 105 247 330 222 242 128 113 106 114 54 79 116 138 147 159 163 156 152 154 153 150 140 126 126 123 120 112 93 77 88 89 92 94 86 76 66 57 54 51 39 25 22 15 11
69 151 8 35 80 150 170 196 130 137 147 95 111 77 75 100 131 145 152 158 163 156 152 152 152 152 139 123 120 118 115 106 90 76 88 98 100 92 81 69 57 50 46 39 36 30 25 20 28
141 175 275 133 172 215 174 187 144 152 148 111 117 78 67 183 139 154 153 158 161 156 155 152 151 148 139 126 118 111 105 98 89 91 99 103 99 89 78 65 53 44 44 45 27 15 26 29 54
174 212 39 66 21 89 104 165 147 133 95 143 109 89 106 135 143 153 154 159 162 160 159 155 152 149 146 136 123 111 99 95 98 102 105 101 92 83 73 60 52 44 38 36 26 25 56 40 44
21 279 50 13 42 89 107 162 148 109 116 109 107 108 112 158 151 157 157 162 166 162 162 159 157 151 145 135 123 115 106 104 107 106 101 94 85 77 73 59 45 42 36 30 34 57 54 60 74
127 67 140 331 115 66 163 155 116 126 123 109 131 81 139 161 154 156 160 165 167 166 165 163 162 157 148 133 120 110 109 114 111 101 100 97 84 76 72 59 56 43 41 48 47 65 55 77 73
96 87 57 107 199 77 167 103 141 122 101 142 129 153 164 165 161 157 162 166 167 168 168 164 163 159 150 139 126 118 119 121 116 109 102 94 84 76 71 64 56 55 41 42 49 69 78 68 52
53 58 4 170 165 188 173 136 170 131 143 152 211 168 164 161 160 159 165 168 171 174 174 171 167 162 153 142 130 128 130 129 125 113 109 96 73 86 73 65 53 55 45 58 66 81 88 63 64
68 45 326 194 237 164 158 145 143 129 150 92 116 145 161 166 165 167 169 173 178 178 179 179 172 163 155 148 139 138 140 135 134 121 112 95 80 93 80 73 63 53 49 57 83 83 86 70 72
131 170 308 279 201 194 165 141 138 142 186 179 144 153 170 173 174 177 178 185 186 185 183 182 180 175 166 157 149 146 150 151 145 135 114 103 76 77 80 81 80 56 48 53 86 93 89 82 76
22 260 252 307 268 169 161 153 125 159 185 174 174 172 174 178 181 185 187 189 190 190 189 190 185 184 176 168 163 157 161 166 152 146 126 108 90 68 94 83 72 60 47 77 95 104 92 85 82
181 270 311 248 318 153 147 148 145 176 152 163 166 172 179 183 188 193 200 197 193 192 194 198 192 189 186 175 173 171 166 165 159 154 142 127 105 88 77 75 58 61 57 56 87 104 103 96 89
275 292 9 132 173 138 119 136 86 142 155 160 170 181 186 190 196 199 202 203 200 197 200 199 197 197 193 184 178 176 176 173 170 172 171 147 130 109 79 55 69 59 54 53 92 110 101 110 94
209 339 25 23 71 133 130 26 152 162 168 167 179 189 194 200 203 210 211 209 204 203 195 195 194 198 199 189 184 185 186 181 176 187 193 188 159 168 97 68 89 67 56 56 82 112 116 119 117
30 40 35 300 44 124 122 271 163 171 168 180 188 194 200 207 213 216 218 219 213 209 206 203 199 192 192 198 197 202 206 203 205 204 212 210 181 184 182 109 87 88 63 56 81 108 131 128 134
16 113 340 326 329 312 190 223 180 181 183 190 196 199 206 215 217 219 220 224 226 221 213 210 209 204 196 194 190 199 208 211 214 215 208 225 215 209 197 188 134 88 31 60 92 129 144 135 139
86 311 297 243 224 199 262 219 177 187 193 203 205 206 210 215 223 222 223 227 229 228 223 219 218 215 208 205 201 200 206 211 215 213 208 228 212 204 198 203 178 159 156 49 102 153 150 152 146
161 229 224 282 263 210 216 252 190 195 204 213 215 211 213 221 230 225 227 229 232 229 228 225 224 219 215 212 210 211 222 220 213 209 206 212 208 204 213 206 194 198 208 119 127 157 175 170 165
239 224 241 283 258 219 35 306 225 192 211 211 209 213 215 220 228 230 224 224 230 232 230 228 229 226 222 220 224 223 220 219 216 204 209 219 216 218 234 231 219 216 217 177 156 156 172 183 176
240 195 210 216 213 356 345 314 20 237 234 221 222 225 224 226 229 229 230 221 226 225 229 227 231 229 227 227 223 223 216 216 220 214 210 219 232 243 240 231 225 227 214 202 173 190 177 182 182
295 218 255 225 104 191 143 278 329 336 23 211 230 232 232 230 234 233 228 224 226 228 226 228 230 231 231 233 227 230 230 228 226 226 224 226 236 246 242 243 239 235 224 220 213 196 195 205 216
248 281 233 285 96 98 330 63 269 11 36 350 295 262 236 240 238 232 228 228 226 229 227 225 229 230 230 232 235 237 237 240 236 235 234 231 237 240 244 250 257 248 234 226 228 241 238 229 239
268 248 44 57 68 14 321 89 288 314 322 293 294 292 283 244 240 237 235 230 228 228 228 226 226 227 228 227 232 236 236 238 237 235 235 235 240 243 243 249 255 249 247 240 238 243 245 248 241
102 65 7 9 16 215 358 64 248 258 262 249 289 326 316 242 239 236 231 228 226 225 224 226 227 227 226 226 228 233 231 236 242 243 242 239 240 241 242 249 252 255 247 241 236 240 240 251 236
207 158 154 188 185 253 246 237 262 249 305 307 337 56 52 30 263 241 238 234 229 228 224 223 225 227 226 227 229 231 231 231 236 239 242 242 246 250 253 253 254 251 238 240 232 231 231 241 237
323 179 182 102 27 78 281 291 304 304 315 344 350 4 3 352 319 255 239 235 236 231 226 227 227 228 229 231 231 232 231 232 233 234 241 248 250 258 258 254 251 249 238 237 231 228 228 233 238
162 169 86 13 129 206 288 287 242 315 318 324 332 332 347 354 335 289 240 237 238 238 230 231 236 232 233 232 236 238 236 236 238 239 241 249 255 259 253 252 245 240 233 228 228 232 234 236 238
79 27 55 112 107 160 182 259 214 222 261 274 283 315 340 346 336 316 311 246 240 237 235 235 239 236 237 238 240 241 240 241 240 243 247 248 251 252 254 250 251 239 234 233 238 233 238 241 238
160 185 158 131 215 141 157 266 203 207 223 235 273 300 349 350 327 302 305 265 243 244 244 241 242 244 244 240 242 244 246 245 245 247 251 248 250 250 250 254 252 244 238 239 241 238 243 245 239